Location: ČR
(50.0000°N, 15.0000°E)
Time: 21:42:21
(UTC+00:00)

Vanguard 3 - Pass Details

Date: 23 October 2021
Orbit: 508 x 3260 km, 33.4° (Epoch: 04 December)

Event Time Altitude Azimuth Distance (km) Brightness Sun altitude
Rises 14:52:45 0° 190° (S) 3,237 10.9 8.1°
Reaches altitude 10° 14:58:28 10° 143° (SE) 2,941 10.0 7.2°
Maximum altitude 14:58:45 10° 141° (SE) 2,973 10.0 7.2°
Drops below altitude 10° 14:59:03 10° 138° (SE) 3,009 10.0 7.2°
Sets 15:07:10 0° 98° (E) 4,946 10.7 6.0°
